sat.trackr.live / text

‹ back to catalog

JCSAT-16

NORAD 41729 · 2016-050A

PAYLOAD ACTIVE UNKNOWN

§ Identity

Operator
Country
JPN
Launch date
2016-08-14
Launch site
AFETR
Launch vehicle
Mass (kg)
RCS (m²)
18.90

Purposes: comms

External: N2YO · Heavens-Above · Gunter

§ Orbital elements

Epoch: 2026-05-25T05:02:38.473728Z

Period
1,436.15 min
Inclination
0.0163°
Eccentricity
0.0001188
Mean motion
1.00268180 rev/d
Perigee alt
35,782.6 km
Apogee alt
35,792.6 km
Semi-major
42,165.7 km
B*
0.0000e+0
RAAN
319.0508°
Arg perigee
108.6208°
Mean anomaly
34.7252°
Rev number
3,584

§ Raw data

JCSAT-161 41729U 16050A   26145.21016752  .00000000  00000+0  00000+0 0  99952 41729   0.0163 319.0508 0001188 108.6208  34.7252  1.00268180 35843

JSON: /api/v1/satellites/41729 · /tle

For live sub-satellite position, see the globe view (requires WebGL).

§ Visibility from observer

Set your observer location to see the next 7 days of passes ≥ 10°. The values pass through the URL so the page stays shareable.

No JS? Fill the form by hand. The geolocation button needs JavaScript.